www.pogodaiklimat.ru

Погода и климат >> Архив погоды >> Норвегия >> Fedje


ПОГОДА в Fedje

  • Прогноз погоды в Fedje
  • Монитор погоды в Fedje
  • Климат города

АРХИВ ПОГОДЫ в Fedje

Время (UTC), дата Ветер
(напр.,м/с)
 
Видим.   Явления Облачность Т
(С)
Тd
(С)
f
(%)
Тe
(С)
Тes
(С)
Комфортность P
(гПа)
Po
(гПа)
Тmin
(С)
Tmax
(С)
R
(мм)
R24
(мм)
S
(см)
19 8.12 СЗ 18
{28}
н/о н/о +5.0 +1.0 75 -3 -3 988.2 985.9
20 8.12 С 16
{29}
н/о н/о +4.5 +0.3 74 -3 -3 989.3 987.0
21 8.12 СЗ 18
{30}
н/о н/о +5.4 +0.2 69 -2 -2 989.7 987.4
22 8.12 СЗ 18
{28}
н/о н/о +4.8 +0.4 73 -3 -3 990.4 988.1
23 8.12 СЗ 18
{28}
н/о н/о +4.8 -0.8 67 -3 -3 991.1 988.8
00 9.12 СЗ 17
{30}
н/о н/о +5.6 -0.2 66 -2 -2 991.8 989.5
01 9.12 СЗ 19
{29}
н/о н/о +5.6 -1.5 60 -2 -2 992.2 989.9
02 9.12 СЗ 17
{26}
н/о н/о +5.5 -2.1 58 -2 -2 992.8 990.5
03 9.12 СЗ 17
{24}
н/о н/о +5.5 -2.1 58 -2 -2 993.0 990.7
04 9.12 СЗ 15
{23}
н/о н/о +5.3 -1.8 60 -2 -2 993.1 990.8
05 9.12 СЗ 15
{21}
н/о н/о +5.2 -1.7 61 -2 -2 993.2 990.9
06 9.12 СЗ 15
{29}
н/о н/о +5.4 +1.2 74 -2 -2 992.9 990.6 +2.9 +6.0
07 9.12 СЗ 15
{20}
н/о н/о +4.6 +1.3 79 -3 -3 993.1 990.8
08 9.12 СЗ 15
{21}
н/о н/о +4.6 -0.2 71 -3 -3 993.1 990.8
09 9.12 СЗ 15
{18}
н/о н/о +4.9 -0.9 66 -2 -2 992.9 990.6
10 9.12 СЗ 16
{20}
н/о н/о +4.2 +0.7 78 -4 -4 992.4 990.1
11 9.12 СЗ 13
{20}
н/о н/о +4.7 +0.1 72 -2 -2 992.7 990.4
12 9.12 СЗ 14
{21}
н/о н/о +4.3 -2.1 63 -3 -3 992.1 989.8
13 9.12 СЗ 12
{19}
н/о н/о +4.5 -1.3 66 -2 -2 992.0 989.7
14 9.12 СЗ 9
{15}
н/о н/о +4.6 -1.4 65 -1 -1 991.5 989.2
15 9.12 СЗ 12
{16}
н/о н/о +5.0 -3.2 55 -1 -1 991.3 989.0
16 9.12 СЗ 11
{15}
н/о н/о +4.3 -2.1 63 -2 -2 991.0 988.7
17 9.12 СЗ 11
{18}
н/о н/о +3.7 -1.8 67 -3 -3 990.8 988.5
18 9.12 СЗ 7
{19}
н/о н/о +3.0 -2.1 69 -3 -3 990.3 988.0 +2.4 +5.4
19 9.12 З 10
{13}
н/о н/о +4.0 -2.6 62 -2 -2 989.6 987.3
20 9.12 З 8
{13}
н/о н/о +4.1 -2.5 62 -2 -2 989.2 986.9
21 9.12 З 7
{13}
н/о н/о +3.4 -1.0 73 -2 -2 988.5 986.2
22 9.12 З 9
{12}
н/о н/о +2.9 -1.3 74 -4 -4 988.0 985.7
23 9.12 ЮЗ 7
{11}
н/о н/о +4.0 -2.2 64 -1 -1 987.1 984.8
00 10.12 ЮЗ 10
{13}
н/о н/о +4.0 -0.6 72 -3 -3 986.0 983.7
01 10.12 ЮЗ 9
{13}
н/о н/о +3.9 -0.7 72 -2 -2 985.3 983.0
02 10.12 Ю 8
{14}
н/о н/о +3.2 +0.4 82 -3 -3 984.5 982.2
03 10.12 Ю 10
{14}
н/о н/о +4.3 -1.1 68 -2 -2 983.1 980.8
04 10.12 Ю 11
{16}
н/о н/о +3.2 +0.8 84 -4 -4 982.4 980.1
05 10.12 Ю 14
{19}
н/о н/о +2.3 +0.1 85 -6 -6 981.4 979.1
06 10.12 Ю 12
{19}
н/о н/о +2.6 +0.3 85 -5 -5 980.6 978.3 +1.7 +4.6
07 10.12 Ю 13
{19}
н/о н/о +1.3 0.0 91 -7 -7 980.1 977.8
08 10.12 Ю 16
{20}
н/о н/о +1.1 0.0 92 -8 -8 979.2 976.9
09 10.12 ЮВ 16
{20}
н/о н/о +1.3 +0.5 94 -8 -8 978.9 976.6
10 10.12 Ю 16
{21}
н/о н/о +1.2 +0.4 94 -8 -8 978.6 976.3
11 10.12 Ю 17
{21}
н/о н/о +1.3 +0.5 94 -8 -8 978.1 975.8
12 10.12 Ю 17
{22}
н/о н/о +1.4 +0.5 94 -8 -8 977.7 975.4
13 10.12 Ю 16
{22}
н/о н/о +1.4 +0.5 94 -8 -8 978.2 975.9
14 10.12 ЮВ 17
{21}
н/о н/о +0.8 0.0 94 -9 -9 977.9 975.6
15 10.12 Ю 15
{21}
н/о н/о +0.8 +0.1 95 -9 -9 978.4 976.1
16 10.12
{19}
н/о н/о +0.8 +0.1 95 978.6 976.3
17 10.12 ЮВ 14
{18}
н/о н/о +1.0 +0.3 95 -8 -8 979.0 976.7
18 10.12 ЮВ 14
{22}
н/о н/о +0.8 +0.1 95 -8 -8 979.5 977.2 +0.6 +3.5
19 10.12 ЮВ 13
{17}
н/о н/о +1.5 +0.8 95 -7 -7 980.3 978.0
20 10.12 ЮВ 13
{17}
н/о н/о +1.3 +0.6 95 -7 -7 980.6 978.3
21 10.12 ЮВ 12
{16}
н/о н/о +1.8 +0.9 94 -7 -7 981.3 979.0
22 10.12 Ю 15
{18}
н/о н/о +1.6 -0.5 86 -7 -7 981.9 979.6
23 10.12 Ю 11
{16}
н/о н/о +2.4 -1.9 73 -5 -5 982.2 979.9
00 11.12 Ю 12
{18}
н/о н/о +2.7 -2.2 70 -5 -5 982.9 980.6
01 11.12 Ю 13
{15}
н/о н/о +2.9 -3.6 62 -5 -5 983.5 981.2
02 11.12 ЮВ 13
{16}
н/о н/о +3.1 -3.7 61 -4 -4 984.0 981.7
03 11.12 Ю 13
{16}
н/о н/о +3.1 -3.4 62 -4 -4 985.0 982.7
04 11.12 ЮВ 13
{16}
н/о н/о +3.0 -3.1 64 -5 -5 985.6 983.3
05 11.12 ЮВ 12
{15}
н/о н/о +3.3 -2.4 66 -4 -4 986.4 984.1
06 11.12 Ю 13
{16}
н/о н/о +3.1 -3.7 61 -4 -4 987.4 985.1 +0.7 +3.4
07 11.12 Ю 12
{15}
н/о н/о +3.4 -3.6 60 -4 -4 988.2 985.9
08 11.12 ЮВ 11
{14}
н/о н/о +3.4 -3.2 62 -3 -3 989.0 986.7
09 11.12 ЮВ 10
{14}
н/о н/о +3.3 -3.7 60 -3 -3 989.9 987.6
10 11.12 ЮВ 9
{12}
н/о н/о +3.3 -3.5 61 -3 -3 990.4 988.1
11 11.12 ЮВ 9
{12}
н/о н/о +3.5 -3.1 62 -3 -3 991.2 988.9
12 11.12 ЮВ 9
{15}
н/о н/о +3.2 -2.7 65 -3 -3 992.0 989.7
13 11.12 ЮВ 9
{11}
н/о н/о +3.4 -2.3 66 -3 -3 992.3 990.0
14 11.12 ЮВ 9
{12}
н/о н/о +3.2 -2.5 66 -3 -3 992.9 990.6
15 11.12 ЮВ 9
{12}
н/о н/о +3.4 -3.4 61 -3 -3 993.4 991.1
16 11.12 ЮВ 8
{10}
н/о н/о +2.5 -2.8 68 -4 -4 993.9 991.6
17 11.12 ЮВ 7
{9}
н/о н/о +1.9 -3.5 67 -4 -4 994.9 992.6
18 11.12 В 7
{12}
н/о н/о +1.3 -4.3 66 -5 -5 995.1 992.8 +0.9 +3.7
19 11.12 В 7
{9}
н/о н/о +1.1 -3.5 71 -5 -5 995.7 993.4
20 11.12 В 5
{8}
н/о н/о +1.5 -2.6 74 -4 -4 996.1 993.8
21 11.12 ЮВ 6
{8}
н/о н/о +2.0 -3.7 66 -4 -4 996.2 993.9
22 11.12 ЮВ 7
{8}
н/о н/о +0.6 -1.6 85 -6 -6 996.1 993.8
23 11.12 ЮВ 8
{10}
н/о н/о +0.7 -1.4 86 -7 -7 996.0 993.7
00 12.12 ЮВ 8
{10}
н/о н/о +0.5 -1.4 87 -7 -7 995.9 993.6
01 12.12 ЮВ 8
{10}
н/о н/о +0.5 -1.1 89 -7 -7 995.8 993.5
02 12.12 В 5
{8}
н/о н/о +0.2 -1.7 87 -6 -6 996.0 993.7
03 12.12 ЮВ 5
{7}
н/о н/о +0.7 -0.9 89 -5 -5 996.1 993.8
04 12.12 В 5
{7}
н/о н/о +0.4 -0.7 92 -6 -6 996.2 993.9
05 12.12 В 5
{7}
н/о н/о +0.4 -0.9 91 -6 -6 996.2 993.9
06 12.12 В 5
{10}
н/о н/о +0.7 -1.0 88 -5 -5 996.1 993.8 +0.1 +2.1
07 12.12 В 3
{6}
н/о н/о +0.8 -1.1 87 -4 -4 996.3 994.0
08 12.12 В 3
{4}
н/о н/о +0.7 -1.4 86 -4 -4 996.5 994.2
09 12.12 В 2
{4}
н/о н/о +0.8 -1.6 84 -3 -3 996.4 994.1
10 12.12 ЮВ 3
{4}
н/о н/о +1.0 -1.4 84 -3 -3 996.6 994.3
11 12.12 В 3
{4}
н/о н/о +1.2 -2.0 79 -3 -3 996.6 994.3
12 12.12 В 4
{6}
н/о н/о +1.3 -1.9 79 -4 -4 996.4 994.1
13 12.12 ЮВ 4
{6}
н/о н/о +1.4 -2.2 77 -4 -4 996.6 994.3
14 12.12 н/о
15 12.12 ЮВ 6
{7}
н/о н/о +1.3 -1.2 83 -5 -5 996.4 994.1
16 12.12 ЮВ 6
{7}
н/о н/о +0.9 -2.7 77 -5 -5 996.5 994.2
17 12.12 В 6
{8}
н/о н/о +0.8 -2.4 79 -5 -5 996.1 993.8
18 12.12 ЮВ 8
{9}
н/о н/о +1.1 -1.8 81 -6 -6 995.5 993.2 +0.6 +1.7
19 12.12 ЮВ 7
{9}
н/о н/о +1.4 -1.5 81 -5 -5 995.4 993.1
20 12.12 ЮВ 7
{9}
н/о н/о +1.4 -1.5 81 -5 -5 995.4 993.1
21 12.12 ЮВ 9
{11}
н/о н/о +2.1 -1.0 80 -5 -5 994.4 992.1
22 12.12 ЮВ 11
{13}
н/о н/о +2.6 -0.8 78 -5 -5 993.6 991.3
23 12.12 ЮВ 11
{14}
н/о н/о +2.3 -0.9 79 -5 -5 993.0 990.7
00 13.12 ЮВ 11
{14}
н/о н/о +2.7 -0.4 80 -5 -5 992.5 990.2
01 13.12 ЮВ 12
{15}
н/о н/о +2.6 +0.5 86 -5 -5 991.3 989.0
02 13.12 ЮВ 13
{15}
н/о н/о +3.0 +1.1 87 -5 -5 990.6 988.3
03 13.12 ЮВ 10
{16}
н/о н/о +2.8 +1.0 88 -5 -5 989.7 987.4
04 13.12 ЮВ 14
{16}
н/о н/о +3.3 +0.7 83 -5 -5 988.4 986.1
05 13.12 ЮВ 14
{17}
н/о н/о +3.8 +1.4 84 -4 -4 987.4 985.1
06 13.12 ЮВ 14
{17}
н/о н/о +3.6 +1.0 83 -4 -4 986.0 983.7 +0.8 +3.9
07 13.12 ЮВ 13
{16}
н/о н/о +4.1 +1.3 82 -3 -3 985.1 982.8
08 13.12 ЮВ 14
{17}
н/о н/о +4.2 +1.2 81 -3 -3 983.8 981.5
09 13.12 ЮВ 14
{18}
н/о н/о +4.2 +1.2 81 -3 -3 982.5 980.2
10 13.12 ЮВ 14
{18}
н/о н/о +4.2 +1.2 81 -3 -3 981.7 979.4
11 13.12 ЮВ 15
{18}
н/о н/о +4.2 +1.8 84 -4 -4 980.8 978.5
12 13.12 Ю 12
{18}
н/о н/о +3.8 +1.7 86 -4 -4 980.4 978.1
13 13.12 Ю 11
{15}
н/о н/о +4.2 +2.4 88 -3 -3 979.9 977.6
14 13.12 Ю 7
{13}
н/о н/о +5.5 +3.5 87 0 0 979.9 977.6
15 13.12 ЮВ 7
{11}
н/о н/о +5.1 +3.0 86 -0 -0 979.4 977.1
16 13.12 ЮВ 8
{14}
н/о н/о +4.9 +2.9 87 -1 -1 979.2 976.9
17 13.12 ЮВ 10
{12}
н/о н/о +4.4 +2.3 86 -2 -2 978.6 976.3
18 13.12 ЮВ 11
{15}
н/о н/о +4.9 +2.8 86 -2 -2 978.0 975.7 +3.5 +5.9
19 13.12 ЮВ 8
{13}
н/о н/о +4.0 +1.7 85 -2 -2 977.5 975.2
20 13.12 ЮВ 9
{11}
н/о н/о +4.4 +1.4 81 -2 -2 977.0 974.7
21 13.12 В 8
{11}
н/о н/о +4.2 +0.7 78 -2 -2 976.5 974.2
22 13.12 В 9
{12}
н/о н/о +4.7 +0.3 73 -1 -1 975.8 973.5
23 13.12 В 9
{15}
н/о н/о +4.6 +0.6 75 -2 -2 975.4 973.1
00 14.12 В 8
{15}
н/о н/о +5.1 -0.1 69 -0 -0 975.1 972.8
01 14.12 В 7
{10}
н/о н/о +5.2 -0.6 66 0 0 974.8 972.5
02 14.12 В 7
{9}
н/о н/о +4.9 -1.3 64 -0 -0 974.7 972.4
03 14.12 ЮВ 5
{9}
н/о н/о +4.8 -1.0 66 0 0 975.3 973.0
04 14.12 Ю 3
{6}
н/о н/о +4.5 -2.1 62 +1 +1 975.4 973.1
05 14.12 В 2
{4}
н/о н/о +4.0 -2.6 62 +2 +2 975.4 973.1
06 14.12 В 4
{10}
н/о н/о +4.4 -1.8 64 +1 +1 975.4 973.1 +4.0 +5.3
07 14.12 В 5
{6}
н/о н/о +4.9 -2.0 61 +1 +1 975.7 973.4
08 14.12 В 5
{7}
н/о н/о +5.0 -1.4 63 +1 +1 976.3 974.0
09 14.12 В 4
{6}
н/о н/о +5.1 -1.3 63 +1 +1 977.2 974.9
10 14.12 В 4
{6}
н/о н/о +5.3 -1.4 62 +2 +2 978.0 975.7
11 14.12 В 4
{5}
н/о н/о +5.5 -0.7 64 +2 +2 978.4 976.1
12 14.12 В 3
{7}
н/о н/о +5.3 -0.7 65 +2 +2 979.2 976.9
13 14.12 Ю 4
{4}
н/о н/о +5.6 -1.5 60 +2 +2 979.8 977.5
14 14.12 В 2
{4}
н/о н/о +4.4 -1.6 65 +2 +2 980.4 978.1
15 14.12 В 2
{3}
н/о н/о +4.6 -1.0 67 +2 +2 981.0 978.7
16 14.12 СВ 3
{4}
н/о н/о +4.0 +0.2 76 0 0 981.7 979.4
17 14.12 СВ 3
{4}
н/о н/о +3.2 -0.4 77 -1 -1 982.5 980.2
18 14.12 В 3
{4}
н/о н/о +3.5 0.0 78 -0 -0 983.2 980.9 +2.7 +5.6
19 14.12 В 2
{3}
н/о н/о +2.7 -1.1 76 -0 -0 983.8 981.5
20 14.12 В 3
{3}
н/о н/о +1.9 -1.7 77 -2 -2 984.5 982.2
21 14.12 В 3
{4}
н/о н/о +1.4 -2.3 76 -3 -3 985.0 982.7
22 14.12 В 1
{3}
н/о н/о +2.1 -2.4 72 +1 +1 985.6 983.3
23 14.12 штиль 0
{1}
н/о н/о +1.9 -1.5 78 +1 +1 986.2 983.9
00 15.12 СВ 3
{4}
н/о н/о +1.8 -1.6 78 -2 -2 986.6 984.3
01 15.12 В 2
{4}
н/о н/о +1.1 -1.6 82 -2 -2 987.3 985.0
02 15.12 СВ 3
{4}
н/о н/о +0.9 -1.5 84 -4 -4 988.0 985.7
03 15.12 СВ 4
{6}
н/о н/о +1.0 -1.5 83 -4 -4 988.7 986.4
04 15.12 С 5
{7}
н/о н/о +1.4 -3.1 72 -4 -4 989.2 986.9
05 15.12 С 6
{9}
н/о н/о +2.0 -3.9 65 -4 -4 990.1 987.8
06 15.12 С 7
{10}
н/о н/о +2.2 -4.3 62 -4 -4 990.6 988.3 +0.1 +3.5
07 15.12 С 6
{11}
н/о н/о +2.3 -4.0 63 -3 -3 991.5 989.2
08 15.12 С 6
{8}
н/о н/о +2.4 -3.3 66 -3 -3 992.2 989.9
09 15.12 С 6
{9}
н/о н/о +2.7 -3.0 66 -3 -3 992.9 990.6
10 15.12 С 5
{9}
н/о н/о +2.4 -3.1 67 -3 -3 993.5 991.2
11 15.12 С 5
{8}
н/о н/о +2.7 -2.0 71 -2 -2 994.1 991.8
12 15.12 С 5
{11}
н/о н/о +2.7 -2.8 67 -2 -2 994.5 992.2
13 15.12 С 5
{8}
н/о н/о +2.9 -1.6 72 -2 -2 994.8 992.5
14 15.12 С 4
{5}
н/о н/о +2.0 -1.4 78 -3 -3 995.4 993.1
15 15.12 С 4
{5}
н/о н/о +1.8 -1.1 81 -3 -3 995.7 993.4
16 15.12 С 4
{6}
н/о н/о +1.6 -1.5 80 -3 -3 996.2 993.9
17 15.12 С 4
{4}
н/о н/о +0.9 -2.0 81 -4 -4 996.5 994.2
18 15.12 СВ 3
{8}
н/о н/о +0.9 -2.3 79 -3 -3 997.1 994.8 +0.6 +3.3

 

Местоположение метеостанции Fedje (Норвегия): широта 60.78 долгота 4.72 высота над уровнем моря 19 м.

В архиве по умолчанию представлена погода в Fedje за последнюю неделю. Архивные данные за месяц целиком и за предыдущие месяцы, начиная с января 2011 года, Вы можете получить, выбрав интересующий диапазон дат из раскрывающегося списка и нажав кнопку "Ввод!".

Внимание! Время в таблицах - всемирное. Для получения местного времени необходимо прибавить поправку, которая в Fedje равна 1 ч.

Смотрите также архив погоды в соседних городах и на ближайших метеорологических станциях:

Погода в Takle (Норвегия) (45 км)
Погода в Bergen (Норвегия) (56 км)
Погода в Furuneset (Норвегия) (59 км)
Погода в Fossmark (Норвегия) (62 км)
Погода в Modalen III (Норвегия) (68 км)
Погода в Evanger (Норвегия) (77 км)
Погода в Kvamskogen (Норвегия) (82 км)
Погода в Bulken (Норвегия) (83 км)
Погода в Ytteroyane Fyr (Норвегия) (88 км)
Погода в Forde Lifthavn (Норвегия) (88 км)

Пояснения к столбцам:

Ветер - указаны скорость ветра в м/с - средняя за 10 мин, порывы в срок и между сроками (в фигурных скобках) и направление, откуда дует ветер: С - северный, СВ - северо-восточный, В - восточный, ЮВ - юго-восточный, Ю - южный, ЮЗ - юго-западный, З - западный, СЗ - северо-западный.
Видимость - горизонтальная дальность видимости в метрах или километрах. При видимости от 1 до 10 км при отсутствии осадков обычно наблюдается дымка, при ухудшении видимости до 1 км и менее - туман. В сухую погоду видимость может ухудшаться дымом, пылью или мглою.
Явления - указаны атмосферные явления, наблюдавшиеся в срок или в последний час перед сроком; фигурными скобками обозначены явления, наблюдавшиеся между сроками (за 1-3 часа до срока); квадратными скобками обозначены град или гололедные отложения с указанием их диаметра в мм.
Облачность - указаны через наклонную черту общая и нижняя облачность в баллах и высота нижней границы облаков в метрах; квадратными скобками обозначены формы облаков: Ci - перистые, Cs - перисто-слоистые, Cc - перисто-кучевые, Ac - высококучевые, As - высокослоистые, Sc - слоисто-кучевые, Ns - слоисто-дождевые, Cu - кучевые, Cb - кучево-дождевые. Подробнее классификацию облаков см. в Атласе облаков (PDF).
T - Температура воздуха - температура, измеренная на высоте 2 м над землей.
Td - Температура точки росы - температура, при понижении до которой содержащийся в воздухе водяной пар достигнет насыщения.
f - Относительная влажность воздуха - влажноcть воздуха, измеренная на высоте 2 м над землей.
Te - Эффективная температура - температура, которую ощущает одетый по сезону человек в тени. Характеристика душности погоды. При расчете учитывается влияние влажности воздуха и скорости ветра на теплоощущения человека.
Tes - Эффективная температура на солнце - температура, которую ощущает человек, с поправкой на солнечный нагрев. Характеристика знойности погоды. Зависит от высоты солнца над горизонтом, облачности и скорости ветра. Ночью, в пасмурную погоду, а также при ветре 12 м/с и более поправка равна нулю.
P - Атмосферное давление - приведенное к уровню моря атмосферное давление.
Po - Атмосферное давление - измеренное на уровне метеостанции атмосферное давление.
Tmin - Минимальная температура - минимум температуры воздуха на высоте 2 м над землей.
Tmax - Максимальная температура - максимум температуры воздуха на высоте 2 м над землей.
R - Количество осадков - Количество выпавших осадков за период времени, мм. При наведении курсора мыши на число - период времени, за который выпало указанное количество осадков.
R24 - Количество осадков - Количество выпавших осадков за 24 часа, мм.
S - Снежный покров - Высота снежного покрова, см. При наведении курсора мыши на число - состояние снежного покрова и степень покрытия местности в баллах.